This is the latest recevied weather packets stored in our database for station/object IT9RID. If no packets are shown the sender has not sent any weather packets the latest 10 day(s).
| Time | Temp. | Humidity | Pressure | Rain* | Wind** | Luminosity | Snow |
|---|---|---|---|---|---|---|---|
| 1777851227 | 12.22° C | 71% | 1020 hPa | 0 mm | - | - | - |
| 1777850627 | 11.67° C | 72% | 1020.1 hPa | 0 mm | - | - | - |
| 1777850031 | 12.22° C | 73% | 1020 hPa | 0 mm | - | - | - |
| 1777849427 | 11.67° C | 74% | 1020.2 hPa | 0 mm | - | - | - |
| 1777848827 | 12.22° C | 74% | 1020.3 hPa | 0 mm | - | - | - |
| 1777848227 | 12.22° C | 74% | 1020.4 hPa | 0 mm | - | - | - |
| 1777847627 | 12.22° C | 74% | 1020.4 hPa | 0 mm | - | - | - |
| 1777847026 | 12.22° C | 75% | 1020.4 hPa | 0 mm | - | - | - |
| 1777846426 | 12.78° C | 76% | 1020.3 hPa | 0 mm | - | - | - |
| 1777845826 | 12.78° C | 76% | 1020.4 hPa | 0 mm | - | - | - |
| 1777845226 | 12.78° C | 76% | 1020.3 hPa | 0 mm | - | - | - |
| 1777844626 | 12.78° C | 77% | 1020.4 hPa | 0 mm | - | - | - |
| 1777844026 | 13.33° C | 76% | 1020.3 hPa | 0 mm | - | - | - |
| 1777843426 | 13.33° C | 76% | 1020.3 hPa | 0 mm | - | - | - |
| 1777842825 | 13.33° C | 77% | 1020.3 hPa | 0 mm | - | - | - |
| 1777841625 | 13.33° C | 78% | 1020.5 hPa | 0 mm | - | - | - |
| 1777840425 | 13.33° C | 78% | 1020.6 hPa | 0 mm | - | - | - |
| 1777839824 | 13.89° C | 78% | 1020.5 hPa | 0 mm | - | - | - |
| 1777839225 | 13.89° C | 78% | 1020.5 hPa | 0 mm | - | - | - |
| 1777838625 | 13.33° C | 78% | 1020.3 hPa | 0 mm | - | - | - |
| 1777838024 | 13.89° C | 78% | 1020.4 hPa | 0 mm | - | - | - |
| 1777837424 | 13.89° C | 78% | 1020.3 hPa | 0 mm | - | - | - |
| 1777836824 | 14.44° C | 79% | 1020.4 hPa | 0 mm | - | - | - |
| 1777836224 | 14.44° C | 79% | 1020.4 hPa | 0 mm | - | - | - |
| 1777835624 | 15° C | 79% | 1020.2 hPa | 0 mm | - | - | - |
* Rain latest hour (hover to see other rain measurements)
** Current wind speed in m/s (hover to see current wind gust speed)